[[{"header":{"parameterUnit":"m.s-1","parameterCategory":1,"la1":30.2991,"la2":30.254,"lo1":-89.0895,"lo2":-89.0444,"dy":0.0017,"dx":0.0017,"nx":28,"ny":28,"refTime":"2025-08-12T21:00:00:Z","depth":0,"parameterNumber":2,"parameterNumberName":"U-component_of_WINDS"},"data":[0,0,0,0,0,0,0,0,0,0,0,0,0,0,0,0,0,0,0,0,0,0,0,0,0,0,0,0,0,0,0,0,0,0,0,0,0,0,0,0,0,0,0,0,0,0,0,0,0,0,0,0,0,0,0,0,0,0,1.6771,1.6772,0,1.6896,1.6897,1.6899,1.6905,1.6903,1.6902,1.69,1.7027,1.7032,1.7037,0,0,0,0,0,0,0,0,0,0,0,0,0,1.654,1.6544,1.677,1.6772,1.6774,1.6895,1.6897,1.6899,1.6905,1.6903,1.6901,1.69,1.7026,1.7031,1.7037,0,0,0,0,0,0,0,0,0,0,0,0,0,1.665,1.6545,1.677,1.6791,1.6795,1.6895,1.6897,1.6899,1.6905,1.6903,1.6901,1.6899,1.7024,1.7031,1.7038,1.7125,0,0,1.7059,1.7063,0,0,0,0,0,0,0,0,1.6644,1.6658,1.6787,1.679,1.6794,1.6882,1.6862,1.6975,1.6906,1.6863,1.69,1.6898,1.6981,1.6991,1.7019,1.7131,1.7137,1.706,1.7064,1.7067,1.7069,0,0,0,0,0,0,0,1.6636,1.6653,1.682,1.6789,1.6793,1.6796,1.6809,1.6884,1.6933,1.6867,1.6867,1.6882,1.6982,1.7013,1.7022,1.7139,1.706,1.7066,1.7071,1.7073,1.7334,1.7337,0,0,0,0,0,0,1.6624,1.6647,1.6816,1.6824,1.6712,1.6802,1.6816,1.6856,1.6932,1.6941,1.6884,1.6882,1.7002,1.7014,1.7027,1.7138,1.7067,1.7074,1.7078,1.7332,1.7335,1.7338,0,0,0,0,0,0,1.6619,1.6639,1.6811,1.6736,1.6758,1.6808,1.6853,1.686,1.689,1.6945,1.6954,1.6906,1.7,1.7017,1.7102,1.7142,1.7077,1.7084,1.7328,1.7333,1.7336,1.7358,0,0,0,0,0,0,1.6612,1.6637,1.667,1.6736,1.6762,1.6883,1.6855,1.6864,1.6902,1.6901,1.6968,1.6977,1.7,1.7092,1.7109,1.7151,1.7089,1.7325,1.733,1.7335,1.7354,1.7362,1.7369,0,0,0,0,0,1.6604,1.667,1.6672,1.6692,1.6804,1.6885,1.69,1.6926,1.6906,1.694,1.6976,1.6975,1.7135,1.71,1.712,1.7164,1.7323,1.7329,1.7335,1.735,1.736,1.7369,0,0,0,0,0,0,1.6605,1.6679,1.6681,1.677,1.6822,1.6886,1.693,1.6935,1.6992,1.6989,1.7018,1.7033,1.7118,1.715,1.711,1.7256,1.7227,1.7237,1.7232,1.7242,1.725,1.724,1.7095,0,0,0,0,0,1.6616,1.6676,1.6737,1.681,1.6836,1.6879,1.6915,1.6931,1.6985,1.7007,1.7049,1.7102,1.7165,1.7205,1.7265,1.7359,1.7375,1.74,1.7407,1.7413,1.7422,1.7478,1.749,1.7357,1.7357,1.7357,0,0,1.6638,1.6686,1.6721,1.6811,1.6853,1.6916,1.6897,1.6962,1.701,1.7017,1.71,1.7134,1.7195,1.7286,1.7328,1.7315,1.7463,1.7421,1.7425,1.7431,1.7485,1.7498,1.7509,1.7361,1.7361,1.736,0,0,1.6711,1.6753,1.6819,1.6863,1.6927,1.6956,1.6973,1.7038,1.7061,1.7146,1.7153,1.7211,1.7317,1.7362,1.7399,1.7495,1.7497,1.7514,1.7554,1.7608,1.7619,1.7628,1.7665,1.7678,1.7522,1.7522,1.7522,0,1.6731,1.6825,1.6853,1.6921,1.6961,1.6973,1.7042,1.7083,1.7163,1.7192,1.7176,1.7314,1.7355,1.7459,1.7483,1.7512,1.7533,1.7506,1.7615,1.7625,1.7634,1.767,1.7683,1.7524,1.7524,1.7524,1.7524,0,1.6848,1.6913,1.696,1.704,1.7086,1.7154,1.7194,1.7237,1.7251,1.7282,1.7371,1.7422,1.7495,1.7521,1.7533,1.7628,1.7618,1.7609,1.758,1.7648,1.7682,1.7696,1.7527,1.7526,1.7526,1.7525,0,0,1.6921,1.7019,1.7036,1.7074,1.7149,1.7201,1.7271,1.7344,1.7382,1.7439,1.75,1.7593,1.7586,1.7628,1.7646,1.7694,1.7771,1.7679,1.7681,1.7696,1.7882,1.7889,1.7904,1.7773,1.7776,1.7778,1.7877,0,1.7003,1.7129,1.7158,1.7266,1.7329,1.7344,1.7406,1.7459,1.7492,1.7551,1.7587,1.7653,1.7638,1.7664,1.7712,1.7751,1.7809,1.7744,1.7832,1.7835,1.7816,1.7922,1.7928,1.8019,1.7891,1.7893,1.7894,0,1.7115,1.7177,1.7292,1.7362,1.739,1.7445,1.7517,1.7573,1.7635,1.7656,1.7706,1.7721,1.7797,1.7766,1.7872,1.7828,1.7866,1.7892,1.7896,1.7905,1.7868,1.7935,1.8049,1.8063,1.7915,1.7914,1.7912,0,1.716,1.7272,1.7356,1.7388,1.7472,1.7511,1.7548,1.7608,1.7652,1.7715,1.7745,1.7815,1.7854,1.791,1.7945,1.7918,1.805,1.802,1.8071,1.807,1.8097,1.8095,1.822,1.812,1.812,1.812,1.812,0,1.7249,1.7319,1.7378,1.7429,1.751,1.7545,1.7624,1.7661,1.7716,1.7777,1.7793,1.785,1.7892,1.7956,1.7984,1.807,1.8087,1.8107,1.8113,1.8106,1.8103,1.8131,1.8126,1.8123,1.8123,1.8122,1.8121,0,1.7311,1.7353,1.7447,1.752,1.7541,1.7597,1.7661,1.7713,1.7748,1.7825,1.7845,1.79,1.7976,1.8016,1.811,1.813,1.8227,1.8229,1.8206,1.8209,1.8258,1.8253,1.8405,1.8428,1.8312,1.8313,1.8314,0,1.7365,1.742,1.7501,1.7544,1.7582,1.7649,1.7695,1.7734,1.7781,1.786,1.7903,1.798,1.8044,1.8166,1.8214,1.8288,1.8293,1.8342,1.8304,1.8296,1.8296,1.8293,1.83,1.8348,1.8349,1.835,1.835,0,1.7458,1.7477,1.7542,1.7617,1.7671,1.7731,1.7791,1.7825,1.7873,1.7926,1.8005,1.8055,1.8154,1.8232,1.831,1.835,1.8359,1.8362,1.8378,1.8371,1.8356,1.8367,1.8225,1.8358,1.8357,1.8357,1.8356,1.8356,1.7519,1.757,1.7636,1.771,1.7759,1.7816,1.787,1.7913,1.798,1.8064,1.8083,1.8167,1.8233,1.834,1.8382,1.845,1.844,1.8462,1.8468,1.8473,1.8477,1.8345,1.8464,1.8464,1.8464,1.8464,1.8463,0,1.7613,1.7658,1.7726,1.781,1.7869,1.7875,1.7942,1.7991,1.8065,1.8126,1.8191,1.8284,1.8361,1.8417,1.8496,1.854,1.8547,1.856,1.8557,1.8567,1.8479,1.8459,1.8553,1.8553,1.8553,1.8553,1.8553,1.8553,1.767,1.7758,1.7786,1.79,1.7944,1.8028,1.8066,1.812,1.8169,1.8273,1.8338,1.8375,1.8436,1.852,1.8592,1.8607,1.8636,1.8649,1.8664,1.8582,1.8572,1.8563,1.8544,1.8654,1.8654,1.8746,1.8747,1.8747]},{"header":{"parameterUnit":"m.s-1","parameterCategory":1,"la1":30.2991,"la2":30.254,"lo1":-89.0895,"lo2":-89.0444,"dy":0.0017,"dx":0.0017,"nx":28,"ny":28,"refTime":"2025-08-12T21:00:00:Z","depth":0,"parameterNumber":3,"parameterNumberName":"V-component_of_WINDS"},"data":[0,0,0,0,0,0,0,0,0,0,0,0,0,0,0,0,0,0,0,0,0,0,0,0,0,0,0,0,0,0,0,0,0,0,0,0,0,0,0,0,0,0,0,0,0,0,0,0,0,0,0,0,0,0,0,0,0,0,-0.2871,-0.287,0,-0.2746,-0.2744,-0.2743,-0.2687,-0.2687,-0.2688,-0.2688,-0.2553,-0.2549,-0.2546,0,0,0,0,0,0,0,0,0,0,0,0,0,-0.3059,-0.3056,-0.2872,-0.287,-0.2868,-0.2746,-0.2744,-0.2742,-0.2687,-0.2687,-0.2688,-0.2688,-0.2554,-0.255,-0.2545,0,0,0,0,0,0,0,0,0,0,0,0,0,-0.296,-0.3055,-0.2872,-0.2826,-0.2821,-0.2746,-0.2744,-0.2742,-0.2687,-0.2687,-0.2688,-0.2688,-0.2556,-0.255,-0.2545,-0.2504,0,0,-0.2528,-0.2525,0,0,0,0,0,0,0,0,-0.2965,-0.2953,-0.2834,-0.2829,-0.2823,-0.2732,-0.2761,-0.2662,-0.2687,-0.2738,-0.2688,-0.2688,-0.2612,-0.2602,-0.2578,-0.2498,-0.2492,-0.2527,-0.2524,-0.2521,-0.252,0,0,0,0,0,0,0,-0.2972,-0.2958,-0.2821,-0.2833,-0.2826,-0.281,-0.2797,-0.2742,-0.2675,-0.2733,-0.2729,-0.2715,-0.2609,-0.2583,-0.2574,-0.249,-0.2527,-0.2522,-0.2519,-0.2517,-0.237,-0.237,0,0,0,0,0,0,-0.2987,-0.2964,-0.2825,-0.2818,-0.2897,-0.2807,-0.2791,-0.2761,-0.2675,-0.2662,-0.2715,-0.2713,-0.2593,-0.2581,-0.2569,-0.2515,-0.2521,-0.2516,-0.2513,-0.2371,-0.237,-0.237,0,0,0,0,0,0,-0.2992,-0.2976,-0.2831,-0.289,-0.287,-0.2803,-0.277,-0.2759,-0.2733,-0.2661,-0.2649,-0.2701,-0.2592,-0.2577,-0.2521,-0.251,-0.2513,-0.2508,-0.2372,-0.2371,-0.237,-0.2409,0,0,0,0,0,0,-0.2997,-0.2977,-0.2963,-0.289,-0.2867,-0.2786,-0.2769,-0.2756,-0.2724,-0.272,-0.2645,-0.2633,-0.2591,-0.253,-0.2516,-0.2502,-0.2504,-0.2372,-0.2371,-0.237,-0.2408,-0.2409,-0.241,0,0,0,0,0,-0.3004,-0.2977,-0.2962,-0.2946,-0.2847,-0.2786,-0.2773,-0.2727,-0.2723,-0.2707,-0.2661,-0.2635,-0.2514,-0.2525,-0.2508,-0.2493,-0.2373,-0.2371,-0.237,-0.2407,-0.2409,-0.241,0,0,0,0,0,0,-0.3048,-0.2967,-0.2949,-0.2898,-0.285,-0.2777,-0.2755,-0.273,-0.268,-0.2679,-0.2623,-0.2606,-0.2555,-0.2518,-0.2532,-0.2449,-0.2441,-0.2436,-0.2475,-0.2476,-0.2477,-0.2486,-0.2499,0,0,0,0,0,-0.3053,-0.3011,-0.2941,-0.2903,-0.288,-0.2822,-0.2793,-0.2763,-0.2709,-0.2688,-0.2638,-0.2586,-0.2536,-0.2504,-0.2454,-0.2403,-0.2385,-0.2384,-0.2385,-0.2387,-0.2383,-0.2353,-0.2351,-0.2366,-0.2366,-0.2366,0,0,-0.306,-0.301,-0.2987,-0.2911,-0.287,-0.2826,-0.2805,-0.276,-0.2727,-0.268,-0.2625,-0.2587,-0.2524,-0.2471,-0.2445,-0.2439,-0.2375,-0.2385,-0.2387,-0.2382,-0.2351,-0.235,-0.2349,-0.2365,-0.2366,-0.2366,0,0,-0.3051,-0.301,-0.2974,-0.2933,-0.2872,-0.2834,-0.2825,-0.2756,-0.2729,-0.2673,-0.2638,-0.2597,-0.2512,-0.2469,-0.2436,-0.2412,-0.2386,-0.2398,-0.2403,-0.2374,-0.2373,-0.2372,-0.2362,-0.236,-0.2394,-0.2394,-0.2394,0,-0.3068,-0.3003,-0.2958,-0.2915,-0.2882,-0.284,-0.2802,-0.2764,-0.2689,-0.2666,-0.2661,-0.2555,-0.251,-0.2445,-0.244,-0.2415,-0.2402,-0.2405,-0.2377,-0.2375,-0.2373,-0.2364,-0.2361,-0.2396,-0.2396,-0.2396,-0.2396,0,-0.3026,-0.2981,-0.2959,-0.289,-0.2854,-0.2814,-0.2761,-0.273,-0.2703,-0.2664,-0.2607,-0.2553,-0.2491,-0.2473,-0.2445,-0.2405,-0.2403,-0.2389,-0.2379,-0.2375,-0.2365,-0.2361,-0.2399,-0.2398,-0.2397,-0.2397,0,0,-0.304,-0.2947,-0.294,-0.2908,-0.2837,-0.2801,-0.2759,-0.27,-0.2674,-0.2624,-0.2586,-0.2516,-0.2502,-0.2465,-0.2432,-0.2407,-0.239,-0.2395,-0.2392,-0.2395,-0.2341,-0.2352,-0.2349,-0.2374,-0.2373,-0.2372,-0.2346,0,-0.3021,-0.2945,-0.2903,-0.2844,-0.2802,-0.2762,-0.2725,-0.2677,-0.264,-0.2597,-0.2556,-0.2507,-0.2493,-0.247,-0.2444,-0.2398,-0.2379,-0.24,-0.2336,-0.2334,-0.2352,-0.2343,-0.2354,-0.2333,-0.2342,-0.2341,-0.2341,0,-0.2989,-0.2941,-0.2878,-0.2813,-0.2794,-0.2761,-0.2704,-0.2665,-0.2609,-0.2584,-0.2543,-0.2511,-0.2463,-0.2458,-0.2391,-0.2406,-0.2377,-0.2351,-0.2349,-0.234,-0.2336,-0.2333,-0.2325,-0.2321,-0.2334,-0.2335,-0.2335,0,-0.3005,-0.2925,-0.2877,-0.285,-0.2773,-0.2751,-0.2718,-0.2662,-0.263,-0.258,-0.2558,-0.2502,-0.2471,-0.2428,-0.2381,-0.2382,-0.2318,-0.2309,-0.2294,-0.2295,-0.2281,-0.2282,-0.2267,-0.2265,-0.2265,-0.2265,-0.2265,0,-0.2987,-0.295,-0.2883,-0.2853,-0.281,-0.2762,-0.272,-0.2683,-0.2634,-0.2595,-0.2557,-0.2521,-0.2462,-0.2418,-0.2381,-0.233,-0.2316,-0.2294,-0.2284,-0.2296,-0.2299,-0.2276,-0.2276,-0.2264,-0.2264,-0.2265,-0.2265,0,-0.2997,-0.2951,-0.2896,-0.2828,-0.281,-0.2781,-0.2722,-0.2691,-0.2653,-0.2604,-0.259,-0.2529,-0.2476,-0.2425,-0.2353,-0.2328,-0.2277,-0.2265,-0.2296,-0.2291,-0.2278,-0.228,-0.2246,-0.2238,-0.2243,-0.2243,-0.2243,0,-0.2989,-0.2959,-0.2889,-0.2861,-0.2829,-0.2785,-0.2752,-0.2703,-0.267,-0.2605,-0.2581,-0.2526,-0.2479,-0.2395,-0.2343,-0.2288,-0.2274,-0.2266,-0.2265,-0.2278,-0.2272,-0.2274,-0.227,-0.2266,-0.2267,-0.2267,-0.2267,0,-0.2978,-0.2957,-0.2912,-0.2859,-0.2822,-0.2777,-0.2731,-0.271,-0.2653,-0.2617,-0.2563,-0.2527,-0.2455,-0.2399,-0.2338,-0.2302,-0.2274,-0.2268,-0.2261,-0.2273,-0.2292,-0.2281,-0.2298,-0.2268,-0.2268,-0.2268,-0.2268,-0.2268,-0.2978,-0.295,-0.2896,-0.2847,-0.2808,-0.2766,-0.2734,-0.2692,-0.2647,-0.2586,-0.2559,-0.2504,-0.2449,-0.2365,-0.2329,-0.2284,-0.2277,-0.2268,-0.2265,-0.2263,-0.2266,-0.2301,-0.2273,-0.2273,-0.2272,-0.2272,-0.2272,0,-0.2964,-0.2928,-0.2884,-0.2822,-0.2783,-0.2763,-0.2711,-0.268,-0.2633,-0.2584,-0.2539,-0.2477,-0.2423,-0.2368,-0.2311,-0.2286,-0.2272,-0.2272,-0.2273,-0.2265,-0.2275,-0.2286,-0.2285,-0.2285,-0.2285,-0.2285,-0.2285,-0.2285,-0.2953,-0.2904,-0.2877,-0.2808,-0.2771,-0.2719,-0.2691,-0.2652,-0.2613,-0.2546,-0.2502,-0.2467,-0.2415,-0.2354,-0.2304,-0.2289,-0.2269,-0.2273,-0.2255,-0.2265,-0.2264,-0.2264,-0.2274,-0.227,-0.227,-0.2248,-0.2247,-0.2247]}]]